Volver al catálogo

STARLINK-35854

ActivoComunicacionesSSO
NORAD 68214·PAYLOAD·🇺🇸 United States

Lanzado Mar 17, 2026 desde Vandenberg Space Force Base

Loading…

Próximos Pases (próximas 24 horas)

TLE

ActualizadoSource: CelesTrak SupGP

Época: Sep 14, 2026, 21:21 UTC

1 68214C 26053H   26257.89006944  .00002538  00000+0  78821-4 0  2573
2 68214  97.2849 131.7673 0001861  94.2161 335.0322 15.33425402    17

Sigue STARLINK-35854 en tiempo real con AllMySat

Download on the App Store